Zurück zum Katalog

COSMOS 397 DEB

AktivLEO
NORAD 5019·DEBRIS·🇷🇺 Russia

Gestartet Feb 25, 1971 von Baikonur Cosmodrome

Loading…

Nächste Überflüge

TLE

Source: Space-Track
1 05019U 71015N   26218.73229492  .00002065  00000-0  34572-3 0  9993
2 05019  65.6800   0.3175 0378392 350.9989   8.4439 14.34398953719478

Verfolge COSMOS 397 DEB in Echtzeit mit AllMySat

Download on the App Store